Satellite-Ground Cal/Val Region Overpasses Predictions

Prediction of Satellite NPP Overpassing Cal/Val Region: PacNW

Region Location: (Latitude: 10.00, Longitude: 139.50) to (Latitude: 22.70, Longitude: 165.60).

Table of predicted overpasses for the next 14.0 days since TLE Epoch: 6/2/2017
Interval Starting Time Starting Location Ending Time Ending Location
1 06/02/2017 15:42:43 ( 22.65, 149.24) 06/02/2017 15:46:18 ( 10.03, 146.24)
2 06/03/2017 02:51:48 ( 10.04, 156.77) 06/03/2017 02:55:23 ( 22.66, 153.76)
3 06/03/2017 15:23:40 ( 22.68, 154.01) 06/03/2017 15:27:15 ( 10.06, 151.00)
4 06/04/2017 02:32:45 ( 10.00, 161.53) 06/04/2017 02:36:21 ( 22.68, 158.51)
5 06/04/2017 15:04:39 ( 22.65, 158.76) 06/04/2017 15:08:14 ( 10.03, 155.76)
6 06/05/2017 02:14:35 ( 13.03, 165.59) 06/05/2017 02:17:19 ( 22.65, 163.28)
7 06/05/2017 03:55:14 ( 10.04, 140.91) 06/05/2017 03:56:57 ( 16.09, 139.50)
8 06/05/2017 14:45:36 ( 22.69, 163.53) 06/05/2017 14:49:12 ( 10.00, 160.51)
9 06/06/2017 03:36:11 ( 10.00, 145.67) 06/06/2017 03:39:47 ( 22.68, 142.66)
10 06/06/2017 14:29:46 ( 11.45, 165.60) 06/06/2017 14:30:10 ( 10.04, 165.27)
11 06/06/2017 16:08:05 ( 22.65, 142.90) 06/06/2017 16:11:40 ( 10.03, 139.90)
12 06/07/2017 03:17:10 ( 10.03, 150.43) 06/07/2017 03:20:45 ( 22.65, 147.42)
13 06/07/2017 15:49:03 ( 22.68, 147.67) 06/07/2017 15:52:39 ( 10.00, 144.65)
14 06/08/2017 02:58:08 ( 10.06, 155.18) 06/08/2017 03:01:43 ( 22.68, 152.17)
15 06/08/2017 15:30:01 ( 22.66, 152.42) 06/08/2017 15:33:36 ( 10.03, 149.42)
16 06/09/2017 02:39:06 ( 10.03, 159.94) 06/09/2017 02:42:41 ( 22.65, 156.94)
17 06/09/2017 15:10:59 ( 22.69, 157.19) 06/09/2017 15:14:35 ( 10.01, 154.17)
18 06/10/2017 02:20:04 ( 10.05, 164.70) 06/10/2017 02:23:39 ( 22.67, 161.69)
19 06/10/2017 14:51:57 ( 22.66, 161.94) 06/10/2017 14:55:32 ( 10.04, 158.93)
20 06/11/2017 03:42:32 ( 10.03, 144.09) 06/11/2017 03:46:07 ( 22.65, 141.08)
21 06/11/2017 14:34:12 ( 18.17, 165.60) 06/11/2017 14:36:31 ( 10.01, 163.69)
22 06/11/2017 16:14:25 ( 22.68, 141.33) 06/11/2017 16:16:33 ( 15.17, 139.51)
23 06/12/2017 03:23:30 ( 10.06, 148.84) 06/12/2017 03:27:05 ( 22.68, 145.83)
24 06/12/2017 15:55:23 ( 22.66, 146.08) 06/12/2017 15:58:58 ( 10.03, 143.08)
25 06/13/2017 03:04:28 ( 10.03, 153.60) 06/13/2017 03:08:03 ( 22.65, 150.60)
26 06/13/2017 15:36:21 ( 22.69, 150.85) 06/13/2017 15:39:57 ( 10.01, 147.83)
27 06/14/2017 02:45:27 ( 10.05, 158.36) 06/14/2017 02:49:02 ( 22.68, 155.35)
28 06/14/2017 15:17:19 ( 22.66, 155.60) 06/14/2017 15:20:54 ( 10.04, 152.59)
29 06/15/2017 02:26:24 ( 10.03, 163.12) 06/15/2017 02:29:59 ( 22.65, 160.12)
30 06/15/2017 14:58:17 ( 22.69, 160.36) 06/15/2017 15:01:53 ( 10.01, 157.35)
31 06/16/2017 02:10:08 ( 19.74, 165.59) 06/16/2017 02:10:58 ( 22.68, 164.87)


NCC Satellite Cal/Val Overpasses Prediction Service
